sat.trackr.live / text

‹ back to catalog

STARLINK-35800

NORAD 66291 · 2025-247AC

PAYLOAD ACTIVE UNKNOWN

§ Identity

Operator
Country
US
Launch date
2025-10-31
Launch site
AFWTR
Launch vehicle
Mass (kg)
RCS (m²)

Purposes: comms

External: N2YO · Heavens-Above · Gunter

§ Orbital elements

Epoch: 2026-05-24T20:44:13.462080Z

Period
93.85 min
Inclination
53.1588°
Eccentricity
0.0000927
Mean motion
15.34398288 rev/d
Perigee alt
462.1 km
Apogee alt
463.3 km
Semi-major
6,840.8 km
B*
6.0509e-4
RAAN
196.3857°
Arg perigee
77.7973°
Mean anomaly
282.3133°
Rev number
3,275

§ Raw data

STARLINK-358001 66291U 25247AC  26144.86404470  .00020121  00000+0  60509-3 0  99922 66291  53.1588 196.3857 0000927  77.7973 282.3133 15.34398288 32753

JSON: /api/v1/satellites/66291 · /tle

For live sub-satellite position, see the globe view (requires WebGL).

§ Visibility from observer

Set your observer location to see the next 7 days of passes ≥ 10°. The values pass through the URL so the page stays shareable.

No JS? Fill the form by hand. The geolocation button needs JavaScript.